Theta_e
339 346 348 352 353 353 351 349 349 350 352 353 352 352 352 352 352 353 353 353 352 351 351 351 350 348 348 346 345 345 345 345 343 341 340 340 340 339 339 339 342 340 341
342 345 345 349 350 351 351 349 348 348 350 351 351 352 351 351 351 351 352 351 352 351 350 350 349 349 347 345 345 345 344 344 343 342 342 342 341 340 340 340 341 338 339
340 344 347 347 350 350 349 348 347 347 346 347 350 350 350 350 350 349 349 349 350 349 349 349 349 346 343 343 344 344 344 342 342 341 340 337 338 339 341 340 339 339 339
340 343 346 344 348 350 349 348 347 346 345 345 346 347 349 349 349 348 347 349 348 346 345 344 346 345 344 343 342 342 342 341 339 338 337 335 336 340 340 339 338 337 337
340 343 345 343 347 349 348 347 346 346 345 345 345 345 346 346 348 348 347 346 347 346 344 343 343 343 342 341 340 339 339 337 335 334 335 335 335 340 338 336 334 335 335
339 342 343 343 347 347 347 347 347 346 346 345 345 345 344 344 345 345 345 345 346 345 345 343 342 342 340 340 339 338 337 333 331 334 334 334 334 340 337 333 329 330 331
337 341 342 342 345 347 347 347 347 346 347 346 345 345 345 344 343 344 344 347 348 346 347 346 343 342 342 340 339 337 334 330 332 333 334 335 335 335 332 328 325 324 326
333 339 341 336 338 343 345 346 345 346 346 345 345 345 344 344 344 345 345 347 348 348 347 346 344 341 340 337 337 335 330 326 326 331 334 335 332 332 329 326 323 322 323
326 336 340 342 340 333 338 340 341 342 341 344 344 343 342 341 343 344 344 345 346 347 346 345 343 341 341 338 335 331 326 321 328 328 330 332 325 329 327 325 323 323 323
316 330 337 340 341 342 343 334 335 335 338 340 340 337 335 336 337 338 337 341 344 345 345 344 343 342 340 338 332 324 320 318 323 324 326 327 322 326 326 324 323 324 324
310 315 325 333 340 341 340 338 332 332 333 334 335 331 331 341 341 338 335 335 342 342 344 342 341 340 337 331 326 320 317 321 319 319 320 318 321 324 324 324 324 325 326
306 308 310 316 327 338 339 340 341 342 341 342 344 344 342 339 339 337 332 330 335 336 340 341 340 335 329 331 325 315 319 316 314 315 316 316 321 322 324 324 325 326 326
304 306 307 308 314 327 335 338 339 341 341 341 342 343 342 340 340 340 340 340 341 330 341 340 337 331 329 328 327 322 316 312 311 312 313 316 320 321 323 325 325 326 326
302 304 305 306 309 318 329 334 338 337 341 339 341 341 340 339 339 339 340 339 340 342 339 337 329 320 319 320 321 318 312 309 309 310 311 315 320 321 324 326 326 327 325
297 299 300 303 305 308 318 329 334 336 336 340 339 338 338 337 335 336 336 337 337 338 337 332 324 318 316 316 317 314 310 308 308 309 311 311 317 320 323 326 327 327 325
295 296 297 299 301 303 310 320 329 334 336 336 338 337 338 336 335 334 334 335 335 335 335 331 321 317 316 316 315 311 308 308 308 309 310 311 314 318 323 326 328 327 325
292 294 294 295 297 299 301 308 322 328 334 335 336 337 336 336 335 333 332 332 334 334 333 329 319 317 315 314 314 310 308 307 307 308 309 310 311 314 321 324 327 327 325
290 290 292 293 294 295 297 300 305 323 330 331 335 337 336 335 335 333 331 330 334 334 332 328 324 315 314 314 313 309 307 307 307 307 308 309 310 311 317 319 326 326 325
287 288 289 291 292 293 295 298 302 308 325 330 331 335 335 335 334 333 330 330 333 331 328 326 322 318 312 311 313 310 308 307 307 306 307 308 309 310 315 317 319 322 324
287 287 287 288 290 291 293 296 300 304 321 326 331 333 335 335 334 332 329 329 330 327 326 326 321 314 313 308 305 307 306 306 307 306 306 306 307 309 313 317 319 319 318
285 285 285 285 287 289 290 292 293 295 302 303 328 331 333 334 333 331 330 328 326 324 323 322 317 310 307 303 300 301 304 304 305 305 306 306 306 307 310 314 317 318 314
284 283 284 284 285 287 288 289 291 294 297 300 305 322 332 333 333 329 328 325 322 322 321 318 313 307 305 302 299 301 298 301 302 303 304 304 305 306 307 309 313 313 314
283 282 282 283 284 285 286 288 291 294 297 300 307 317 329 331 332 329 328 323 321 321 318 317 313 310 306 300 300 299 295 298 300 302 303 303 304 305 306 306 307 310 311
284 284 283 283 283 284 285 286 286 287 289 294 298 301 306 326 329 329 328 323 320 320 318 315 315 315 315 303 301 298 300 302 299 297 300 303 303 303 304 305 304 306 307
285 284 283 283 283 283 283 283 284 285 288 291 294 299 304 315 328 326 326 322 319 319 318 316 314 313 315 310 309 301 296 299 301 301 297 297 300 302 303 304 304 304 305
285 284 283 282 282 283 282 282 281 282 284 287 290 293 303 310 324 324 323 322 320 318 317 315 314 312 313 313 308 304 299 296 295 298 298 298 298 300 301 302 303 304 304
Wind_Speed
8 14 16 15 16 17 17 15 14 14 14 16 16 17 16 16 15 13 13 14 14 14 14 15 16 14 13 12 11 12 11 10 13 12 12 13 13 12 10 7 3 11 11
6 15 17 17 19 17 17 16 15 13 14 16 16 16 16 16 16 15 13 13 14 14 14 14 14 14 13 11 11 11 10 12 12 9 10 11 10 10 10 8 9 9 9
5 12 17 14 17 17 18 16 16 15 15 16 15 15 16 15 15 15 14 12 12 14 13 13 13 12 11 11 12 11 12 13 12 8 6 6 9 8 9 10 8 8 7
5 11 16 13 15 16 16 15 15 15 16 16 16 16 16 15 16 16 15 13 12 14 14 13 13 12 12 12 12 12 12 12 10 8 6 5 7 9 10 9 7 6 4
6 11 13 13 15 17 17 16 15 15 15 16 16 17 17 17 16 15 15 13 13 14 14 14 14 14 14 14 13 13 12 11 9 8 6 5 4 9 9 7 6 5 3
5 9 11 13 15 14 14 16 18 17 16 16 16 17 17 16 15 15 15 14 14 14 15 16 15 15 14 13 13 12 11 9 8 7 6 6 5 9 7 5 4 4 2
8 6 9 8 13 15 16 16 16 17 17 17 17 17 16 16 16 16 15 15 15 16 16 16 16 15 14 13 12 11 10 8 7 5 5 6 5 7 6 4 3 3 3
8 5 7 6 8 9 12 15 17 17 17 17 18 17 17 16 15 15 16 14 12 16 16 15 15 14 13 14 12 12 10 8 6 6 5 5 7 7 6 5 4 3 3
10 5 6 8 11 9 8 10 12 13 19 17 17 17 16 16 16 16 15 14 12 12 13 14 15 16 15 13 13 10 9 8 6 4 5 5 6 7 6 4 4 4 5
12 9 7 6 8 12 15 13 11 14 12 12 13 12 12 11 12 12 11 12 14 13 13 13 15 15 15 13 11 8 7 6 8 6 5 4 6 8 7 5 6 6 6
13 10 9 8 9 11 13 11 12 12 13 10 10 10 11 13 15 16 15 12 13 11 10 10 15 15 13 13 10 8 8 5 6 5 5 6 7 8 7 7 7 8 7
20 17 14 11 11 11 10 14 11 11 10 11 14 16 14 15 14 15 14 12 12 11 11 11 16 13 12 8 7 7 5 5 5 5 4 7 8 9 9 8 9 9 9
20 17 18 17 14 12 11 9 7 7 8 10 16 16 15 12 12 11 9 10 11 11 10 11 10 7 8 6 6 6 5 5 4 4 5 8 10 10 10 10 9 9 9
23 22 23 22 17 14 10 9 10 8 11 9 12 14 11 9 10 10 9 12 12 10 10 9 7 7 5 4 6 6 6 5 4 4 5 7 8 11 11 11 11 11 10
23 23 23 24 21 17 14 11 11 10 9 12 12 13 11 11 10 10 10 9 10 8 9 11 8 7 6 7 7 7 7 7 6 4 4 8 8 10 12 12 13 12 11
23 24 23 23 21 20 17 15 12 11 11 10 11 12 16 12 11 10 10 10 10 9 9 10 9 8 6 5 7 7 7 7 7 7 5 7 9 10 12 14 15 14 13
20 22 22 22 22 21 20 18 13 13 11 10 10 14 16 16 14 12 11 10 11 10 12 11 8 6 6 6 8 8 7 8 7 8 7 6 7 10 10 9 16 15 15
20 21 21 19 21 21 19 16 14 14 13 12 10 11 16 17 18 13 11 11 12 11 12 11 11 9 7 9 8 8 7 8 9 9 7 7 7 7 9 11 12 15 15
20 21 22 21 21 22 20 15 16 18 14 12 11 11 14 17 18 14 11 12 14 11 12 12 10 10 8 8 9 8 8 8 8 7 9 9 8 7 7 9 8 11 14
19 19 20 18 20 21 15 15 13 13 13 13 12 12 16 13 17 16 12 13 13 11 10 12 13 9 8 8 7 7 7 7 7 8 9 8 9 10 9 9 8 8 11
21 21 21 21 21 16 14 14 14 13 13 14 13 18 18 16 16 15 12 12 12 12 14 16 9 13 7 6 5 2 5 8 10 9 8 8 10 11 10 10 8 7 8
22 22 23 21 20 17 13 13 13 14 13 14 14 18 17 18 16 15 16 13 15 11 14 14 12 6 4 9 5 2 5 7 9 11 10 10 12 10 11 12 12 11 10
23 23 21 22 20 17 19 14 12 13 13 13 12 12 15 19 19 16 17 13 15 13 12 14 15 15 10 8 8 6 4 6 6 8 14 11 13 11 11 12 13 12 12
22 21 21 21 21 17 19 17 19 14 15 14 15 14 17 21 18 17 19 16 16 13 14 14 14 16 13 10 8 5 5 1 6 5 6 11 11 13 13 10 11 12 12
19 21 21 21 20 20 18 17 14 16 13 12 14 21 19 19 19 16 19 17 17 14 15 18 16 15 12 11 12 8 3 3 2 2 5 7 10 11 10 11 10 10 12
19 20 20 23 21 20 19 19 19 20 19 15 15 16 14 13 14 15 17 16 16 15 14 14 17 19 16 13 12 10 10 7 5 4 3 5 8 10 11 10 11 10 9
Wind_Direction
188 168 170 179 174 166 173 173 167 160 157 157 157 157 154 153 151 151 154 155 156 155 151 149 151 153 140 130 131 128 133 127 114 112 111 108 104 101 96 89 113 83 78
167 179 174 182 182 178 178 176 171 167 162 164 165 165 162 159 157 154 155 156 160 162 159 157 154 144 135 132 137 134 127 107 106 106 111 107 106 110 104 86 51 85 78
190 186 183 189 184 186 187 180 174 171 170 171 171 172 173 168 166 164 162 159 161 162 161 158 156 150 154 153 142 132 124 118 116 118 173 144 117 125 115 103 90 92 88
187 189 192 185 192 188 187 185 180 177 176 177 179 178 178 178 176 174 171 168 169 168 167 167 163 155 154 153 148 142 137 130 128 147 181 141 134 131 119 106 98 88 82
190 193 202 179 199 193 187 187 185 183 185 182 183 185 186 185 184 182 180 179 179 179 176 171 167 160 158 157 152 148 144 141 143 196 160 161 162 132 124 114 130 119 37
284 214 193 180 204 204 202 191 186 190 190 189 188 188 188 189 190 189 187 188 192 189 180 172 164 162 159 157 155 151 151 149 174 184 182 135 209 125 129 126 116 120 139
334 286 245 209 213 204 200 200 198 196 194 194 194 192 192 190 190 189 189 192 197 189 184 173 169 165 160 160 158 156 157 164 211 192 190 174 174 151 150 139 132 147 162
340 292 258 215 256 240 220 208 203 201 201 200 196 195 194 193 194 194 192 193 193 184 185 167 168 168 168 171 165 164 160 181 207 196 189 187 114 170 166 156 156 168 175
341 297 252 245 219 240 245 224 217 217 215 207 202 199 197 194 193 195 195 193 193 187 178 172 173 174 164 176 176 167 163 180 214 198 200 200 154 186 181 175 167 168 163
352 333 301 264 250 230 232 220 219 226 231 218 207 201 194 192 192 191 191 197 197 195 195 193 174 169 162 168 165 167 167 180 225 200 208 202 185 203 188 177 178 179 170
341 346 331 299 256 242 228 235 215 214 215 219 209 208 194 205 202 200 202 191 201 201 203 195 179 171 159 147 156 163 174 215 218 218 215 145 211 210 194 187 190 185 175
338 333 333 314 290 255 236 228 219 217 216 218 218 218 217 216 209 208 203 196 199 200 202 202 176 159 156 170 170 166 215 215 215 219 221 172 210 214 199 195 195 190 179
342 338 341 336 315 279 253 236 224 212 212 220 222 219 216 218 215 207 206 203 208 203 209 195 164 161 176 181 187 197 210 213 222 216 204 191 207 214 205 199 199 192 185
345 345 343 342 332 311 279 246 238 218 216 213 222 213 220 215 214 213 213 204 206 202 203 173 163 151 147 190 191 201 210 213 214 211 186 202 218 213 207 199 199 191 186
348 347 348 344 343 330 304 274 247 236 222 219 215 208 210 212 212 211 211 206 204 191 187 178 158 157 165 181 198 208 206 212 212 211 218 182 224 225 215 204 202 193 194
345 345 345 343 342 339 326 294 276 246 239 228 218 214 211 214 211 207 209 210 201 191 187 186 164 166 174 170 201 209 213 213 212 211 210 188 216 228 227 209 204 194 196
343 339 343 340 340 339 331 326 290 269 244 233 227 220 211 210 214 205 204 209 209 196 187 186 158 163 159 179 201 203 210 212 213 212 214 214 196 224 238 252 208 200 198
342 343 339 340 338 337 330 321 309 287 261 241 226 221 215 211 211 209 206 204 206 195 193 190 180 168 177 192 196 202 206 206 211 211 212 213 212 214 211 240 246 202 201
344 341 340 341 340 337 328 319 312 295 274 258 237 225 216 213 211 209 208 208 209 199 195 188 191 180 178 182 199 200 203 207 208 208 213 212 214 217 214 193 236 197 197
347 344 340 340 341 338 331 325 324 310 280 263 257 235 224 214 213 206 204 204 205 188 194 193 189 182 191 177 176 202 205 206 208 214 211 210 212 213 214 215 199 193 176
350 348 347 341 342 340 337 335 328 319 311 304 272 254 237 224 208 208 207 199 195 195 192 194 182 182 172 151 114 177 219 218 215 215 214 212 208 210 210 209 207 201 189
352 348 345 343 340 340 335 328 316 308 298 295 286 290 248 230 212 204 203 195 192 197 198 188 180 166 148 176 157 137 185 206 225 216 211 213 212 206 207 209 206 203 203
352 350 344 342 340 339 339 326 320 313 307 306 299 300 263 243 218 202 203 195 194 198 196 190 184 180 178 189 192 154 150 219 170 193 216 211 209 208 206 206 208 206 205
351 346 346 342 341 342 342 337 331 319 314 312 303 298 288 272 228 206 205 198 193 195 197 197 193 195 192 184 199 212 284 145 190 176 220 217 214 211 207 204 204 206 204
351 348 347 345 343 344 347 344 333 323 313 311 304 300 287 285 228 209 212 201 196 198 201 191 198 198 202 192 198 175 169 220 256 202 168 190 217 219 210 208 201 201 201
350 351 351 348 346 346 346 345 340 330 324 318 315 308 297 287 249 209 214 206 202 200 195 198 198 193 197 201 193 188 185 185 177 174 185 172 208 204 206 205 204 203 198